Location: Nitta Yuma
(33.0242°N, 90.8483°W)
Time: 18:06:06
(UTC+00:00)

N. Korean satellite - Visible Passes

Search period start: 22 April 2021 00:00
Search period end: 02 May 2021 00:00
Orbit: 452 x 499 km, 97.2° (Epoch: 21 April)

Date Brightness Start Highest point End Pass type
(mag) Time Alt. Az. Time Alt. Az. Time Alt. Az.
23 Apr 9.4 10:40:50 10° NE 10:43:31 20° E 10:46:09 10° SE visible
27 Apr 9.7 10:26:58 10° ENE 10:28:32 13° E 10:30:06 10° ESE visible
30 Apr 9.4 10:38:13 10° NE 10:40:42 18° E 10:43:08 10° SE visible
